TimeCDT,TemperatureF,Dew PointF,Humidity,Sea Level PressureIn,VisibilityMPH,Wind Direction,Wind SpeedMPH,Gust SpeedMPH,PrecipitationIn,Events,Conditions,WindDirDegrees,DateUTC
12:55 AM,36.7,30.9,80,30.24,10.0,Calm,Calm,-,N/A,,Clear,0,2012-10-08 05:55:00
1:55 AM,37.8,31.6,79,30.25,10.0,Calm,Calm,-,N/A,,Clear,0,2012-10-08 06:55:00
2:55 AM,35.8,30.7,82,30.24,10.0,Calm,Calm,-,N/A,,Clear,0,2012-10-08 07:55:00
3:55 AM,35.8,31.1,83,30.23,10.0,Calm,Calm,-,N/A,,Clear,0,2012-10-08 08:55:00
4:55 AM,36.1,30.7,81,30.22,10.0,Calm,Calm,-,N/A,,Clear,0,2012-10-08 09:55:00
5:55 AM,34.5,30.0,84,30.22,10.0,Calm,Calm,-,N/A,,Clear,0,2012-10-08 10:55:00
6:55 AM,33.8,31.5,91,30.22,10.0,Calm,Calm,-,N/A,,Clear,0,2012-10-08 11:55:00
7:55 AM,32.7,31.1,94,30.22,10.0,West,3.5,-,N/A,,Clear,270,2012-10-08 12:55:00
8:55 AM,38.3,34.5,86,30.23,10.0,Calm,Calm,-,N/A,,Clear,0,2012-10-08 13:55:00
9:55 AM,47.5,37.0,67,30.23,10.0,SSW,6.9,-,N/A,,Clear,200,2012-10-08 14:55:00
10:55 AM,54.3,33.4,45,30.22,10.0,South,12.7,-,N/A,,Clear,190,2012-10-08 15:55:00
11:55 AM,57.0,32.0,39,30.19,10.0,South,13.8,-,N/A,,Clear,190,2012-10-08 16:55:00
12:55 PM,59.7,32.7,36,30.16,10.0,South,15.0,20.7,N/A,,Clear,180,2012-10-08 17:55:00
1:55 PM,62.2,33.3,34,30.12,10.0,South,13.8,24.2,N/A,,Clear,190,2012-10-08 18:55:00
2:55 PM,64.2,33.6,32,30.07,10.0,South,13.8,21.9,N/A,,Clear,190,2012-10-08 19:55:00
3:55 PM,65.1,34.5,32,30.04,10.0,South,15.0,24.2,N/A,,Clear,180,2012-10-08 20:55:00
4:55 PM,64.9,35.6,34,30.01,10.0,South,17.3,23.0,N/A,,Clear,170,2012-10-08 21:55:00
5:55 PM,63.1,37.0,38,29.99,10.0,South,15.0,-,N/A,,Clear,170,2012-10-08 22:55:00
6:55 PM,62.1,38.5,42,30.00,10.0,South,11.5,-,N/A,,Clear,180,2012-10-08 23:55:00
7:55 PM,57.6,39.9,52,30.01,10.0,SSE,8.1,-,N/A,,Clear,160,2012-10-09 00:55:00
8:55 PM,53.4,39.7,60,30.01,10.0,SE,5.8,-,N/A,,Clear,140,2012-10-09 01:55:00
9:55 PM,52.9,39.6,61,30.00,10.0,SE,10.4,-,N/A,,Clear,140,2012-10-09 02:55:00
10:55 PM,54.3,40.5,59,30.00,10.0,SSE,12.7,-,N/A,,Clear,150,2012-10-09 03:55:00
11:55 PM,52.7,41.0,64,29.99,10.0,SSE,11.5,-,N/A,,Clear,150,2012-10-09 04:55:00